• în România
  • Lista ţărilor
  • Pe 7 zile
  • Temperatura apei
  • Hartă satelitară
  • Meteo pe hartă
  • Widget-uri
  • user-avatar
    Intrare

    Meteo pe oră la Hlyusty

    Astăzi, 26 Aprilie, Joi

    Timp Temperatura Precipitaţii Vânt Presiune Umiditate
    00:00 +6°C° 0,1 mm 2 m/s 732 mmHg 86%
    01:00 +6°C° 0,1 mm 2 m/s 731 mmHg 88%
    02:00 +6°C° 0 mm 2 m/s 730 mmHg 91%
    03:00 +7°C° 0,3 mm 2 m/s 729 mmHg 93%
    04:00 +7°C° 0,3 mm 2 m/s 729 mmHg 94%
    05:00 +7°C° 0,3 mm 3 m/s 728 mmHg 95%
    06:00 +8°C° 0,4 mm 3 m/s 728 mmHg 94%
    07:00 +8°C° 0,4 mm 3 m/s 728 mmHg 93%
    08:00 +8°C° 0 mm 4 m/s 728 mmHg 90%
    09:00 +8°C° 0,4 mm 5 m/s 728 mmHg 87%
    10:00 +8°C° 0,4 mm 6 m/s 729 mmHg 84%
    11:00 +6°C° 0,4 mm 7 m/s 730 mmHg 81%
    12:00 +8°C° 0,1 mm 6 m/s 730 mmHg 76%
    13:00 +8°C° 0,1 mm 6 m/s 731 mmHg 72%
    14:00 +9°C° 0 mm 5 m/s 733 mmHg 67%
    15:00 +9°C° 0,1 mm 5 m/s 733 mmHg 64%
    16:00 +9°C° 0,1 mm 5 m/s 734 mmHg 62%
    17:00 +9°C° 0,1 mm 5 m/s 734 mmHg 59%
    18:00 +8°C° 0 mm 4 m/s 735 mmHg 65%
    19:00 +8°C° 0 mm 3 m/s 735 mmHg 71%
    20:00 +6°C° 0 mm 2 m/s 736 mmHg 78%
    21:00 +6°C° 0 mm 2 m/s 736 mmHg 80%
    22:00 +4°C° 0 mm 3 m/s 736 mmHg 82%
    23:00 +4°C° 0 mm 3 m/s 737 mmHg 84%

    Mâine, 27 Aprilie, Vineri

    Timp Temperatura Precipitaţii Vânt Presiune Umiditate
    00:00 +4°C° 0 mm 3 m/s 737 mmHg 87%
    01:00 +4°C° 0 mm 2 m/s 737 mmHg 90%
    02:00 +4°C° 0 mm 2 m/s 737 mmHg 93%
    03:00 +4°C° 0 mm 2 m/s 737 mmHg 94%
    04:00 +3°C° 0 mm 2 m/s 738 mmHg 95%
    05:00 +3°C° 0 mm 2 m/s 738 mmHg 96%
    06:00 +5°C° 0 mm 2 m/s 738 mmHg 89%
    07:00 +5°C° 0 mm 3 m/s 739 mmHg 81%
    08:00 +8°C° 0 mm 3 m/s 739 mmHg 73%
    09:00 +9°C° 0 mm 3 m/s 739 mmHg 66%
    10:00 +10°C° 0 mm 4 m/s 739 mmHg 59%
    11:00 +11°C° 0 mm 4 m/s 739 mmHg 53%
    12:00 +12°C° 0 mm 4 m/s 739 mmHg 50%
    13:00 +13°C° 0 mm 4 m/s 739 mmHg 47%
    14:00 +13°C° 0 mm 4 m/s 739 mmHg 44%
    15:00 +13°C° 0,1 mm 4 m/s 740 mmHg 46%
    16:00 +13°C° 0,1 mm 4 m/s 740 mmHg 47%
    17:00 +12°C° 0,1 mm 3 m/s 740 mmHg 49%
    18:00 +11°C° 0 mm 3 m/s 740 mmHg 58%
    19:00 +9°C° 0 mm 2 m/s 740 mmHg 66%
    20:00 +8°C° 0 mm 1 m/s 740 mmHg 74%
    21:00 +7°C° 0,3 mm 2 m/s 741 mmHg 78%
    22:00 +6°C° 0,3 mm 2 m/s 741 mmHg 82%
    23:00 +6°C° 0,3 mm 2 m/s 741 mmHg 86%

    Poimâine, 28 Aprilie, Sâmbătă

    Timp Temperatura Precipitaţii Vânt Presiune Umiditate
    00:00 +5°C° 0 mm 2 m/s 741 mmHg 89%
    01:00 +5°C° 0 mm 2 m/s 742 mmHg 92%
    02:00 +4°C° 0 mm 2 m/s 742 mmHg 94%
    03:00 +4°C° 0 mm 2 m/s 742 mmHg 95%
    04:00 +3°C° 0 mm 2 m/s 743 mmHg 96%
    05:00 +3°C° 0 mm 2 m/s 743 mmHg 97%
    06:00 +5°C° 0 mm 2 m/s 743 mmHg 90%
    07:00 +6°C° 0 mm 2 m/s 744 mmHg 83%
    08:00 +8°C° 0 mm 2 m/s 744 mmHg 76%
    09:00 +9°C° 0 mm 3 m/s 744 mmHg 69%
    10:00 +10°C° 0 mm 3 m/s 744 mmHg 62%
    11:00 +11°C° 0 mm 4 m/s 745 mmHg 55%
    12:00 +12°C° 0 mm 4 m/s 745 mmHg 51%
    13:00 +13°C° 0 mm 4 m/s 745 mmHg 47%
    14:00 +13°C° 0 mm 4 m/s 744 mmHg 43%
    15:00 +13°C° 0 mm 3 m/s 744 mmHg 44%
    16:00 +13°C° 0 mm 3 m/s 744 mmHg 45%
    17:00 +13°C° 0 mm 3 m/s 744 mmHg 45%
    18:00 +13°C° 0 mm 2 m/s 744 mmHg 52%
    19:00 +10°C° 0 mm 2 m/s 745 mmHg 58%
    20:00 +10°C° 0 mm 1 m/s 745 mmHg 64%
    21:00 +9°C° 0 mm 1 m/s 745 mmHg 68%
    22:00 +7°C° 0 mm 2 m/s 745 mmHg 71%
    23:00 +6°C° 0 mm 2 m/s 745 mmHg 74%

    29 Aprilie, Duminică

    Timp Temperatura Precipitaţii Vânt Presiune Umiditate
    00:00 +7°C° 0,1 mm 2 m/s 745 mmHg 76%
    01:00 +7°C° 0,1 mm 2 m/s 745 mmHg 78%
    02:00 +7°C° 0,1 mm 2 m/s 745 mmHg 79%
    03:00 +7°C° 0,4 mm 3 m/s 745 mmHg 83%
    04:00 +7°C° 0,4 mm 3 m/s 745 mmHg 87%
    05:00 +7°C° 0,4 mm 3 m/s 744 mmHg 91%
    06:00 +8°C° 0 mm 3 m/s 744 mmHg 86%
    07:00 +9°C° 0 mm 3 m/s 744 mmHg 82%
    08:00 +11°C° 0 mm 4 m/s 744 mmHg 77%
    09:00 +12°C° 0 mm 3 m/s 744 mmHg 73%
    10:00 +14°C° 0 mm 3 m/s 743 mmHg 69%
    11:00 +17°C° 0 mm 3 m/s 743 mmHg 64%
    12:00 +18°C° 0 mm 3 m/s 743 mmHg 61%
    13:00 +19°C° 0 mm 3 m/s 743 mmHg 57%
    14:00 +20°C° 0 mm 3 m/s 742 mmHg 54%
    15:00 +20°C° 0 mm 3 m/s 742 mmHg 56%
    16:00 +20°C° 0 mm 3 m/s 742 mmHg 57%
    17:00 +20°C° 0 mm 3 m/s 742 mmHg 59%
    18:00 +18°C° 0 mm 3 m/s 742 mmHg 67%
    19:00 +16°C° 0 mm 2 m/s 741 mmHg 74%
    20:00 +15°C° 0 mm 2 m/s 741 mmHg 81%
    21:00 +14°C° 0,1 mm 2 m/s 741 mmHg 84%
    22:00 +14°C° 0,1 mm 2 m/s 741 mmHg 88%
    23:00 +13°C° 0,1 mm 2 m/s 741 mmHg 91%

    30 Aprilie, Luni

    Timp Temperatura Precipitaţii Vânt Presiune Umiditate
    00:00 +13°C° 0,1 mm 2 m/s 741 mmHg 92%
    01:00 +13°C° 0,1 mm 1 m/s 741 mmHg 93%
    02:00 +12°C° 0,1 mm 1 m/s 741 mmHg 95%
    03:00 +12°C° 0,1 mm 1 m/s 741 mmHg 95%
    04:00 +12°C° 0,1 mm 1 m/s 741 mmHg 95%
    05:00 +12°C° 0,1 mm 1 m/s 741 mmHg 96%
    06:00 +14°C° 0,2 mm 1 m/s 741 mmHg 91%
    07:00 +15°C° 0,2 mm 1 m/s 741 mmHg 86%
    08:00 +18°C° 0,2 mm 1 m/s 741 mmHg 81%
    09:00 +19°C° 0 mm 1 m/s 741 mmHg 76%
    10:00 +21°C° 0 mm 1 m/s 741 mmHg 72%
    11:00 +21°C° 0 mm 2 m/s 741 mmHg 67%
    12:00 +21°C° 0,4 mm 2 m/s 741 mmHg 67%
    13:00 +21°C° 0,4 mm 2 m/s 741 mmHg 68%
    14:00 +22°C° 0,4 mm 1 m/s 741 mmHg 68%
    15:00 +22°C° 0,4 mm 1 m/s 741 mmHg 69%
    16:00 +22°C° 0,4 mm 1 m/s 741 mmHg 71%
    17:00 +21°C° 0,4 mm 1 m/s 740 mmHg 73%
    18:00 +20°C° 0,2 mm 1 m/s 740 mmHg 78%
    19:00 +18°C° 0,2 mm 1 m/s 740 mmHg 83%
    20:00 +16°C° 0,2 mm 1 m/s 740 mmHg 88%
    21:00 +16°C° 0,6 mm 2 m/s 740 mmHg 89%
    22:00 +15°C° 0,6 mm 2 m/s 740 mmHg 90%
    23:00 +15°C° 0,6 mm 2 m/s 740 mmHg 91%

    1 Mai, Marţi

    Timp Temperatura Precipitaţii Vânt Presiune Umiditate
    00:00 +14°C° 0,2 mm 2 m/s 740 mmHg 91%
    01:00 +14°C° 0,2 mm 2 m/s 740 mmHg 91%
    02:00 +13°C° 0,2 mm 2 m/s 740 mmHg 90%
    03:00 +13°C° 0,1 mm 2 m/s 740 mmHg 90%
    04:00 +13°C° 0,1 mm 2 m/s 739 mmHg 90%
    05:00 +13°C° 0,1 mm 2 m/s 739 mmHg 89%
    06:00 +13°C° 0 mm 3 m/s 739 mmHg 85%
    07:00 +16°C° 0 mm 3 m/s 739 mmHg 81%
    08:00 +17°C° 0 mm 3 m/s 740 mmHg 76%
    09:00 +18°C° 0 mm 4 m/s 740 mmHg 73%
    10:00 +20°C° 0 mm 4 m/s 740 mmHg 70%
    11:00 +21°C° 0 mm 4 m/s 741 mmHg 67%
    12:00 +21°C° 0,2 mm 4 m/s 741 mmHg 69%
    13:00 +20°C° 0,2 mm 4 m/s 741 mmHg 71%
    14:00 +20°C° 0,2 mm 4 m/s 741 mmHg 73%
    15:00 +20°C° 0,1 mm 4 m/s 742 mmHg 69%
    16:00 +20°C° 0,1 mm 3 m/s 742 mmHg 65%
    17:00 +20°C° 0,1 mm 3 m/s 742 mmHg 61%
    18:00 +18°C° 0 mm 3 m/s 743 mmHg 66%
    19:00 +16°C° 0 mm 2 m/s 743 mmHg 71%
    20:00 +14°C° 0 mm 1 m/s 743 mmHg 76%
    21:00 +13°C° 0 mm 1 m/s 744 mmHg 78%
    22:00 +12°C° 0 mm 1 m/s 744 mmHg 80%
    23:00 +11°C° 0 mm 1 m/s 744 mmHg 82%
    Arată mai mult